Time,TemperatureF,DewpointF,PressureIn,WindDirection,WindDirectionDegrees,WindSpeedMPH,WindSpeedGustMPH,Humidity,HourlyPrecipIn,Conditions,Clouds,dailyrainin,SoftwareType,DateUTC
2014-10-20 00:04:00,39.7,33.0,29.85,WNW,292,3.5,12.0,77,0.00,,,0.00,Rainwise IP-100,2014-10-20 04:04:00,
2014-10-20 00:09:00,39.7,33.0,29.85,WNW,292,3.3,12.0,77,0.00,,,0.00,Rainwise IP-100,2014-10-20 04:09:00,
2014-10-20 00:14:00,39.7,33.0,29.85,West,270,7.0,10.0,77,0.00,,,0.00,Rainwise IP-100,2014-10-20 04:14:00,
2014-10-20 00:19:00,39.7,35.0,29.86,NW,315,3.3,12.0,78,0.00,,,0.00,Rainwise IP-100,2014-10-20 04:19:00,
2014-10-20 00:24:00,39.7,35.0,29.86,NNW,337,7.0,11.0,78,0.00,,,0.00,Rainwise IP-100,2014-10-20 04:24:00,
2014-10-20 00:29:00,39.6,35.0,29.85,WNW,292,2.3,9.0,78,0.00,,,0.00,Rainwise IP-100,2014-10-20 04:29:00,
2014-10-20 00:34:00,39.5,35.0,29.86,WNW,292,4.2,12.0,78,0.00,,,0.00,Rainwise IP-100,2014-10-20 04:34:00,
2014-10-20 00:39:00,39.5,35.0,29.86,WNW,292,2.1,12.0,78,0.00,,,0.00,Rainwise IP-100,2014-10-20 04:39:00,
2014-10-20 00:44:00,39.5,35.0,29.86,WNW,292,6.3,12.0,79,0.00,,,0.00,Rainwise IP-100,2014-10-20 04:44:00,
2014-10-20 00:49:00,39.4,33.0,29.86,NNW,337,3.3,8.0,79,0.00,,,0.00,Rainwise IP-100,2014-10-20 04:49:00,
2014-10-20 00:54:00,39.3,33.0,29.86,WNW,292,2.3,14.0,79,0.00,,,0.00,Rainwise IP-100,2014-10-20 04:54:00,
2014-10-20 00:59:00,39.3,33.0,29.86,WSW,247,2.1,12.0,79,0.00,,,0.00,Rainwise IP-100,2014-10-20 04:59:00,
2014-10-20 01:04:00,39.3,33.0,29.86,WNW,292,3.5,9.0,80,0.00,,,0.00,Rainwise IP-100,2014-10-20 05:04:00,
2014-10-20 01:09:00,39.2,33.0,29.86,WNW,292,4.4,7.0,80,0.00,,,0.00,Rainwise IP-100,2014-10-20 05:09:00,
2014-10-20 01:14:00,39.2,33.0,29.86,West,270,2.6,10.0,80,0.00,,,0.00,Rainwise IP-100,2014-10-20 05:14:00,
2014-10-20 01:19:00,39.2,33.0,29.86,WSW,247,5.4,11.0,80,0.00,,,0.00,Rainwise IP-100,2014-10-20 05:19:00,
2014-10-20 01:24:00,39.2,33.0,29.87,WNW,292,4.2,8.0,80,0.00,,,0.00,Rainwise IP-100,2014-10-20 05:24:00,
2014-10-20 01:29:00,39.2,33.0,29.87,WSW,247,3.3,5.0,80,0.00,,,0.00,Rainwise IP-100,2014-10-20 05:29:00,
2014-10-20 01:34:00,39.1,33.0,29.87,North,360,2.1,9.0,80,0.00,,,0.00,Rainwise IP-100,2014-10-20 05:34:00,
2014-10-20 01:39:00,39.1,33.0,29.87,WNW,292,3.0,9.0,80,0.00,,,0.00,Rainwise IP-100,2014-10-20 05:39:00,
2014-10-20 01:44:00,39.0,33.0,29.87,West,270,4.2,10.0,80,0.00,,,0.00,Rainwise IP-100,2014-10-20 05:44:00,
2014-10-20 01:49:00,39.0,33.0,29.87,WSW,247,1.9,9.0,80,0.00,,,0.00,Rainwise IP-100,2014-10-20 05:49:00,
2014-10-20 01:54:00,38.9,33.0,29.87,WNW,292,5.8,10.0,80,0.00,,,0.00,Rainwise IP-100,2014-10-20 05:54:00,
2014-10-20 01:59:00,38.8,33.0,29.88,WNW,292,4.7,11.0,80,0.00,,,0.00,Rainwise IP-100,2014-10-20 05:59:00,
2014-10-20 02:04:00,38.7,33.0,29.87,NW,315,2.8,8.0,80,0.00,,,0.00,Rainwise IP-100,2014-10-20 06:04:00,
2014-10-20 02:09:00,38.6,33.0,29.87,WSW,247,1.9,14.0,79,0.00,,,0.00,Rainwise IP-100,2014-10-20 06:09:00,
2014-10-20 02:14:00,38.5,33.0,29.87,WSW,247,2.1,12.0,79,0.00,,,0.00,Rainwise IP-100,2014-10-20 06:14:00,
2014-10-20 02:19:00,38.3,32.0,29.88,West,270,3.0,8.0,79,0.00,,,0.00,Rainwise IP-100,2014-10-20 06:19:00,
2014-10-20 02:24:00,38.1,32.0,29.88,NNW,337,6.3,8.0,80,0.00,,,0.00,Rainwise IP-100,2014-10-20 06:24:00,
2014-10-20 02:29:00,37.8,32.0,29.88,NW,315,5.1,8.0,80,0.00,,,0.00,Rainwise IP-100,2014-10-20 06:29:00,
2014-10-20 02:34:00,37.5,32.0,29.88,WNW,292,1.4,9.0,80,0.00,,,0.00,Rainwise IP-100,2014-10-20 06:34:00,
2014-10-20 02:39:00,37.2,32.0,29.88,SW,225,4.2,8.0,81,0.00,,,0.00,Rainwise IP-100,2014-10-20 06:39:00,
2014-10-20 02:44:00,37.0,32.0,29.88,WNW,292,1.2,8.0,81,0.00,,,0.00,Rainwise IP-100,2014-10-20 06:44:00,
2014-10-20 02:49:00,36.8,32.0,29.88,SW,225,1.4,8.0,81,0.00,,,0.00,Rainwise IP-100,2014-10-20 06:49:00,
2014-10-20 02:54:00,36.6,32.0,29.88,WNW,292,5.4,10.0,81,0.00,,,0.00,Rainwise IP-100,2014-10-20 06:54:00,
2014-10-20 02:59:00,36.5,32.0,29.88,NNW,337,4.2,9.0,81,0.00,,,0.00,Rainwise IP-100,2014-10-20 06:59:00,
2014-10-20 03:04:00,36.4,31.0,29.88,WNW,292,3.3,9.0,80,0.00,,,0.00,Rainwise IP-100,2014-10-20 07:04:00,
2014-10-20 03:09:00,36.4,31.0,29.88,WNW,292,4.4,10.0,80,0.00,,,0.00,Rainwise IP-100,2014-10-20 07:09:00,
2014-10-20 03:14:00,36.3,31.0,29.88,WSW,247,5.4,12.0,80,0.00,,,0.00,Rainwise IP-100,2014-10-20 07:14:00,
2014-10-20 03:19:00,36.2,31.0,29.88,NNW,337,5.6,10.0,80,0.00,,,0.00,Rainwise IP-100,2014-10-20 07:19:00,
2014-10-20 03:24:00,36.1,31.0,29.89,West,270,3.3,12.0,79,0.00,,,0.00,Rainwise IP-100,2014-10-20 07:24:00,
2014-10-20 03:29:00,36.0,31.0,29.89,WNW,292,3.7,11.0,79,0.00,,,0.00,Rainwise IP-100,2014-10-20 07:29:00,
2014-10-20 03:34:00,35.8,31.0,29.89,NNW,337,3.3,11.0,79,0.00,,,0.00,Rainwise IP-100,2014-10-20 07:34:00,
2014-10-20 03:39:00,35.6,31.0,29.89,NNW,337,2.3,8.0,79,0.00,,,0.00,Rainwise IP-100,2014-10-20 07:39:00,
2014-10-20 03:44:00,35.5,31.0,29.89,West,270,4.2,9.0,80,0.00,,,0.00,Rainwise IP-100,2014-10-20 07:44:00,
2014-10-20 03:49:00,35.4,29.0,29.89,NNW,337,3.5,9.0,80,0.00,,,0.00,Rainwise IP-100,2014-10-20 07:49:00,
2014-10-20 03:54:00,35.2,29.0,29.89,WNW,292,4.4,10.0,80,0.00,,,0.00,Rainwise IP-100,2014-10-20 07:54:00,
2014-10-20 03:59:00,35.1,29.0,29.89,West,270,2.3,7.0,79,0.00,,,0.00,Rainwise IP-100,2014-10-20 07:59:00,
2014-10-20 04:04:00,35.1,29.0,29.90,WNW,292,1.4,10.0,79,0.00,,,0.00,Rainwise IP-100,2014-10-20 08:04:00,
2014-10-20 04:09:00,34.9,29.0,29.90,WNW,292,2.8,6.0,79,0.00,,,0.00,Rainwise IP-100,2014-10-20 08:09:00,
2014-10-20 04:14:00,34.7,29.0,29.90,WNW,292,3.0,6.0,80,0.00,,,0.00,Rainwise IP-100,2014-10-20 08:14:00,
2014-10-20 04:19:00,34.6,29.0,29.90,WNW,292,2.3,5.0,80,0.00,,,0.00,Rainwise IP-100,2014-10-20 08:19:00,
2014-10-20 04:24:00,34.5,29.0,29.90,WNW,292,4.0,9.0,80,0.00,,,0.00,Rainwise IP-100,2014-10-20 08:24:00,
2014-10-20 04:29:00,34.5,29.0,29.90,NNW,337,2.3,8.0,80,0.00,,,0.00,Rainwise IP-100,2014-10-20 08:29:00,
2014-10-20 04:34:00,34.3,29.0,29.90,NNW,337,1.6,8.0,80,0.00,,,0.00,Rainwise IP-100,2014-10-20 08:34:00,
2014-10-20 04:39:00,34.2,29.0,29.90,NNW,337,4.2,8.0,80,0.00,,,0.00,Rainwise IP-100,2014-10-20 08:39:00,
2014-10-20 04:44:00,34.3,29.0,29.90,NNW,337,1.6,10.0,80,0.00,,,0.00,Rainwise IP-100,2014-10-20 08:44:00,
2014-10-20 04:49:00,34.2,29.0,29.90,NW,315,3.5,7.0,80,0.00,,,0.00,Rainwise IP-100,2014-10-20 08:49:00,
2014-10-20 04:54:00,34.2,29.0,29.91,NW,315,3.5,12.0,80,0.00,,,0.00,Rainwise IP-100,2014-10-20 08:54:00,
2014-10-20 04:59:00,34.5,29.0,29.91,WNW,292,4.2,9.0,79,0.00,,,0.00,Rainwise IP-100,2014-10-20 08:59:00,
2014-10-20 05:04:00,34.7,29.0,29.91,WNW,292,6.5,9.0,78,0.00,,,0.00,Rainwise IP-100,2014-10-20 09:04:00,
2014-10-20 05:09:00,34.7,29.0,29.91,WSW,247,7.9,11.0,78,0.00,,,0.00,Rainwise IP-100,2014-10-20 09:09:00,
2014-10-20 05:14:00,34.7,29.0,29.91,WNW,292,1.9,8.0,78,0.00,,,0.00,Rainwise IP-100,2014-10-20 09:14:00,
2014-10-20 05:19:00,34.7,29.0,29.91,WNW,292,2.3,9.0,78,0.00,,,0.00,Rainwise IP-100,2014-10-20 09:19:00,
2014-10-20 05:24:00,34.4,29.0,29.92,SW,225,4.0,8.0,78,0.00,,,0.00,Rainwise IP-100,2014-10-20 09:24:00,
2014-10-20 05:29:00,34.3,29.0,29.92,NW,315,3.3,7.0,79,0.00,,,0.00,Rainwise IP-100,2014-10-20 09:29:00,
2014-10-20 05:34:00,34.3,29.0,29.92,West,270,2.3,6.0,79,0.00,,,0.00,Rainwise IP-100,2014-10-20 09:34:00,
2014-10-20 05:39:00,34.1,29.0,29.92,WNW,292,3.5,4.0,79,0.00,,,0.00,Rainwise IP-100,2014-10-20 09:39:00,
2014-10-20 05:44:00,33.9,29.0,29.92,West,270,1.2,5.0,80,0.00,,,0.00,Rainwise IP-100,2014-10-20 09:44:00,
2014-10-20 05:49:00,33.9,29.0,29.93,WNW,292,1.4,6.0,80,0.00,,,0.00,Rainwise IP-100,2014-10-20 09:49:00,
2014-10-20 05:54:00,34.0,29.0,29.92,NNW,337,0.0,6.0,81,0.00,,,0.00,Rainwise IP-100,2014-10-20 09:54:00,
2014-10-20 05:59:00,33.9,29.0,29.92,WNW,292,1.2,4.0,81,0.00,,,0.00,Rainwise IP-100,2014-10-20 09:59:00,
2014-10-20 06:04:00,33.8,29.0,29.92,SSW,202,0.0,4.0,82,0.00,,,0.00,Rainwise IP-100,2014-10-20 10:04:00,
2014-10-20 06:09:00,33.7,29.0,29.92,SSW,202,0.0,4.0,82,0.00,,,0.00,Rainwise IP-100,2014-10-20 10:09:00,
2014-10-20 06:14:00,33.6,31.0,29.92,WNW,292,2.3,5.0,83,0.00,,,0.00,Rainwise IP-100,2014-10-20 10:14:00,
2014-10-20 06:19:00,33.8,29.0,29.92,WNW,292,2.3,6.0,82,0.00,,,0.00,Rainwise IP-100,2014-10-20 10:19:00,
2014-10-20 06:24:00,34.1,29.0,29.92,WNW,292,2.1,7.0,81,0.00,,,0.00,Rainwise IP-100,2014-10-20 10:24:00,
2014-10-20 06:29:00,34.3,29.0,29.93,West,270,1.6,6.0,81,0.00,,,0.00,Rainwise IP-100,2014-10-20 10:29:00,
2014-10-20 06:34:00,34.1,29.0,29.93,WNW,292,0.0,5.0,81,0.00,,,0.00,Rainwise IP-100,2014-10-20 10:34:00,
2014-10-20 06:39:00,33.8,29.0,29.93,WNW,292,1.9,3.0,82,0.00,,,0.00,Rainwise IP-100,2014-10-20 10:39:00,
2014-10-20 06:44:00,33.8,29.0,29.93,WSW,247,2.6,7.0,82,0.00,,,0.00,Rainwise IP-100,2014-10-20 10:44:00,
2014-10-20 06:49:00,33.9,29.0,29.93,WNW,292,1.6,7.0,82,0.00,,,0.00,Rainwise IP-100,2014-10-20 10:49:00,
2014-10-20 06:54:00,33.9,29.0,29.93,WNW,292,1.6,4.0,82,0.00,,,0.00,Rainwise IP-100,2014-10-20 10:54:00,
2014-10-20 06:59:00,33.7,29.0,29.94,NNW,337,2.1,6.0,82,0.00,,,0.00,Rainwise IP-100,2014-10-20 10:59:00,
2014-10-20 07:04:00,33.8,31.0,29.93,WNW,292,3.5,8.0,83,0.00,,,0.00,Rainwise IP-100,2014-10-20 11:04:00,
2014-10-20 07:09:00,34.4,29.0,29.93,NW,315,3.3,7.0,82,0.00,,,0.00,Rainwise IP-100,2014-10-20 11:09:00,
2014-10-20 07:14:00,35.0,29.0,29.94,WNW,292,2.8,10.0,80,0.00,,,0.00,Rainwise IP-100,2014-10-20 11:14:00,
2014-10-20 07:19:00,35.5,31.0,29.95,NW,315,2.8,13.0,79,0.00,,,0.00,Rainwise IP-100,2014-10-20 11:19:00,
2014-10-20 07:24:00,35.7,29.0,29.95,WSW,247,0.0,6.0,78,0.00,,,0.00,Rainwise IP-100,2014-10-20 11:24:00,
2014-10-20 07:29:00,35.7,29.0,29.95,WNW,292,1.6,6.0,78,0.00,,,0.00,Rainwise IP-100,2014-10-20 11:29:00,
2014-10-20 07:34:00,36.0,29.0,29.96,WNW,292,1.9,5.0,78,0.00,,,0.00,Rainwise IP-100,2014-10-20 11:34:00,
2014-10-20 07:39:00,36.4,29.0,29.95,NW,315,3.3,11.0,78,0.00,,,0.00,Rainwise IP-100,2014-10-20 11:39:00,
2014-10-20 07:44:00,36.7,31.0,29.95,NNW,337,2.6,9.0,77,0.00,,,0.00,Rainwise IP-100,2014-10-20 11:44:00,
2014-10-20 07:49:00,37.0,31.0,29.95,West,270,0.0,7.0,75,0.00,,,0.00,Rainwise IP-100,2014-10-20 11:49:00,
2014-10-20 07:54:00,37.4,31.0,29.96,WNW,292,3.3,7.0,75,0.00,,,0.00,Rainwise IP-100,2014-10-20 11:54:00,
2014-10-20 07:59:00,37.9,31.0,29.97,NW,315,3.0,5.0,74,0.00,,,0.00,Rainwise IP-100,2014-10-20 11:59:00,
2014-10-20 08:04:00,38.3,31.0,29.97,WNW,292,2.3,8.0,74,0.00,,,0.00,Rainwise IP-100,2014-10-20 12:04:00,
2014-10-20 08:09:00,38.5,32.0,29.97,WNW,292,2.3,10.0,73,0.00,,,0.00,Rainwise IP-100,2014-10-20 12:09:00,
2014-10-20 08:14:00,38.8,32.0,29.97,WNW,292,2.3,8.0,73,0.00,,,0.00,Rainwise IP-100,2014-10-20 12:14:00,
2014-10-20 08:19:00,39.5,32.0,29.97,WSW,247,5.8,6.0,73,0.00,,,0.00,Rainwise IP-100,2014-10-20 12:19:00,
2014-10-20 08:24:00,40.0,32.0,29.98,NNW,337,2.6,11.0,71,0.00,,,0.00,Rainwise IP-100,2014-10-20 12:24:00,
2014-10-20 08:29:00,40.2,31.0,29.97,ESE,112,1.4,7.0,69,0.00,,,0.00,Rainwise IP-100,2014-10-20 12:29:00,
2014-10-20 08:34:00,40.3,31.0,29.98,WNW,292,2.3,12.0,69,0.00,,,0.00,Rainwise IP-100,2014-10-20 12:34:00,
2014-10-20 08:39:00,40.2,31.0,29.98,West,270,4.0,11.0,68,0.00,,,0.00,Rainwise IP-100,2014-10-20 12:39:00,
2014-10-20 08:44:00,40.5,31.0,29.98,SE,135,1.2,11.0,67,0.00,,,0.00,Rainwise IP-100,2014-10-20 12:44:00,
2014-10-20 08:49:00,40.9,31.0,29.98,NNW,337,4.2,16.0,66,0.00,,,0.00,Rainwise IP-100,2014-10-20 12:49:00,
2014-10-20 08:54:00,41.1,31.0,29.98,NW,315,9.8,13.0,65,0.00,,,0.00,Rainwise IP-100,2014-10-20 12:54:00,
2014-10-20 08:59:00,41.0,31.0,29.98,WNW,292,10.7,14.0,65,0.00,,,0.00,Rainwise IP-100,2014-10-20 12:59:00,
2014-10-20 09:04:00,40.9,31.0,29.99,SW,225,3.3,11.0,64,0.00,,,0.00,Rainwise IP-100,2014-10-20 13:04:00,
2014-10-20 09:09:00,41.0,31.0,29.98,NNW,337,4.9,10.0,64,0.00,,,0.00,Rainwise IP-100,2014-10-20 13:09:00,
2014-10-20 09:14:00,41.2,31.0,29.99,WNW,292,5.1,11.0,64,0.00,,,0.00,Rainwise IP-100,2014-10-20 13:14:00,
2014-10-20 09:19:00,41.3,29.0,29.98,WNW,292,8.4,14.0,63,0.00,,,0.00,Rainwise IP-100,2014-10-20 13:19:00,
2014-10-20 09:24:00,41.4,29.0,29.99,WNW,292,1.4,14.0,62,0.00,,,0.00,Rainwise IP-100,2014-10-20 13:24:00,
2014-10-20 09:29:00,41.7,31.0,29.99,NNW,337,6.5,11.0,62,0.00,,,0.00,Rainwise IP-100,2014-10-20 13:29:00,
2014-10-20 09:34:00,42.0,31.0,29.99,WSW,247,4.0,11.0,62,0.00,,,0.00,Rainwise IP-100,2014-10-20 13:34:00,
2014-10-20 09:39:00,42.2,29.0,29.99,NNW,337,4.4,9.0,61,0.00,,,0.00,Rainwise IP-100,2014-10-20 13:39:00,
2014-10-20 09:44:00,42.4,29.0,30.00,WNW,292,7.0,14.0,61,0.00,,,0.00,Rainwise IP-100,2014-10-20 13:44:00,
2014-10-20 09:49:00,42.1,29.0,29.99,WNW,292,6.3,10.0,61,0.00,,,0.00,Rainwise IP-100,2014-10-20 13:49:00,
2014-10-20 09:54:00,42.1,29.0,30.00,NNE,22,1.9,12.0,60,0.00,,,0.00,Rainwise IP-100,2014-10-20 13:54:00,
2014-10-20 09:59:00,42.4,29.0,30.00,North,360,3.3,11.0,60,0.00,,,0.00,Rainwise IP-100,2014-10-20 13:59:00,
2014-10-20 10:04:00,42.8,31.0,30.00,WSW,247,0.0,10.0,60,0.00,,,0.00,Rainwise IP-100,2014-10-20 14:04:00,
2014-10-20 10:09:00,43.0,31.0,30.00,NNW,337,8.4,9.0,59,0.00,,,0.00,Rainwise IP-100,2014-10-20 14:09:00,
2014-10-20 10:14:00,42.8,31.0,30.00,NNW,337,7.2,13.0,59,0.00,,,0.00,Rainwise IP-100,2014-10-20 14:14:00,
2014-10-20 10:19:00,42.6,29.0,30.00,West,270,2.1,12.0,58,0.00,,,0.00,Rainwise IP-100,2014-10-20 14:19:00,
2014-10-20 10:24:00,42.7,29.0,30.00,SSW,202,2.1,14.0,58,0.00,,,0.00,Rainwise IP-100,2014-10-20 14:24:00,
2014-10-20 10:29:00,43.1,29.0,30.00,WSW,247,3.3,14.0,58,0.00,,,0.00,Rainwise IP-100,2014-10-20 14:29:00,
2014-10-20 10:34:00,43.5,31.0,29.99,NNW,337,4.2,12.0,58,0.00,,,0.00,Rainwise IP-100,2014-10-20 14:34:00,
2014-10-20 10:39:00,44.1,31.0,30.00,WNW,292,2.8,12.0,57,0.00,,,0.00,Rainwise IP-100,2014-10-20 14:39:00,
2014-10-20 10:44:00,44.5,31.0,30.00,NNW,337,3.7,9.0,57,0.00,,,0.00,Rainwise IP-100,2014-10-20 14:44:00,
2014-10-20 10:49:00,45.1,31.0,30.00,NNW,337,2.1,4.0,56,0.00,,,0.00,Rainwise IP-100,2014-10-20 14:49:00,
2014-10-20 10:54:00,45.6,31.0,30.00,WNW,292,4.7,10.0,55,0.00,,,0.00,Rainwise IP-100,2014-10-20 14:54:00,
2014-10-20 10:59:00,45.4,31.0,29.99,South,180,1.6,6.0,55,0.00,,,0.00,Rainwise IP-100,2014-10-20 14:59:00,
2014-10-20 11:04:00,45.7,31.0,29.99,SSW,202,1.6,9.0,55,0.00,,,0.00,Rainwise IP-100,2014-10-20 15:04:00,
2014-10-20 11:09:00,46.5,32.0,29.99,WNW,292,0.0,5.0,55,0.00,,,0.00,Rainwise IP-100,2014-10-20 15:09:00,
2014-10-20 11:14:00,47.0,31.0,30.00,WSW,247,1.2,6.0,54,0.00,,,0.00,Rainwise IP-100,2014-10-20 15:14:00,
2014-10-20 11:19:00,47.3,31.0,29.99,NNW,337,0.0,8.0,53,0.00,,,0.00,Rainwise IP-100,2014-10-20 15:19:00,
2014-10-20 11:24:00,47.6,31.0,29.99,WSW,247,2.3,6.0,52,0.00,,,0.00,Rainwise IP-100,2014-10-20 15:24:00,
2014-10-20 11:29:00,47.7,31.0,29.99,WSW,247,0.0,5.0,52,0.00,,,0.00,Rainwise IP-100,2014-10-20 15:29:00,
2014-10-20 11:34:00,47.3,29.0,29.99,WNW,292,3.5,7.0,51,0.00,,,0.00,Rainwise IP-100,2014-10-20 15:34:00,
2014-10-20 11:39:00,46.9,29.0,29.99,WNW,292,0.0,10.0,51,0.00,,,0.00,Rainwise IP-100,2014-10-20 15:39:00,
2014-10-20 11:44:00,47.0,29.0,29.99,West,270,1.2,9.0,51,0.00,,,0.00,Rainwise IP-100,2014-10-20 15:44:00,
2014-10-20 11:49:00,47.3,29.0,29.99,SSW,202,2.8,7.0,50,0.00,,,0.00,Rainwise IP-100,2014-10-20 15:49:00,
2014-10-20 11:54:00,47.3,29.0,29.99,South,180,3.3,5.0,50,0.00,,,0.00,Rainwise IP-100,2014-10-20 15:54:00,
2014-10-20 11:59:00,47.7,31.0,29.99,South,180,4.7,4.7,51,0.00,,,0.00,Rainwise IP-100,2014-10-20 15:59:00,
2014-10-20 12:04:00,48.0,31.0,29.99,SSW,202,5.4,8.0,51,0.00,,,0.00,Rainwise IP-100,2014-10-20 16:04:00,
2014-10-20 12:09:00,47.6,31.0,29.98,SSW,202,2.3,9.0,51,0.00,,,0.00,Rainwise IP-100,2014-10-20 16:09:00,
2014-10-20 12:14:00,47.5,31.0,29.99,ESE,112,0.0,9.0,52,0.00,,,0.00,Rainwise IP-100,2014-10-20 16:14:00,
2014-10-20 12:19:00,48.0,32.0,29.98,SW,225,3.0,8.0,52,0.00,,,0.00,Rainwise IP-100,2014-10-20 16:19:00,
2014-10-20 12:24:00,48.2,31.0,29.98,SSW,202,4.4,6.0,51,0.00,,,0.00,Rainwise IP-100,2014-10-20 16:24:00,
2014-10-20 12:29:00,48.3,31.0,29.98,SSW,202,2.8,7.0,51,0.00,,,0.00,Rainwise IP-100,2014-10-20 16:29:00,
2014-10-20 12:34:00,48.4,31.0,29.98,WSW,247,4.7,10.0,51,0.00,,,0.00,Rainwise IP-100,2014-10-20 16:34:00,
2014-10-20 12:39:00,48.0,31.0,29.98,NNW,337,2.3,8.0,50,0.00,,,0.00,Rainwise IP-100,2014-10-20 16:39:00,
2014-10-20 12:44:00,47.9,31.0,29.97,SSW,202,3.5,7.0,50,0.00,,,0.00,Rainwise IP-100,2014-10-20 16:44:00,
2014-10-20 12:49:00,48.3,31.0,29.97,West,270,0.0,7.0,50,0.00,,,0.00,Rainwise IP-100,2014-10-20 16:49:00,
2014-10-20 12:54:00,48.9,32.0,29.97,SW,225,2.8,6.0,50,0.00,,,0.00,Rainwise IP-100,2014-10-20 16:54:00,
2014-10-20 12:59:00,48.7,31.0,29.97,WNW,292,7.0,7.0,48,0.00,,,0.00,Rainwise IP-100,2014-10-20 16:59:00,
2014-10-20 13:04:00,48.4,31.0,29.97,SSW,202,1.2,11.0,49,0.00,,,0.00,Rainwise IP-100,2014-10-20 17:04:00,
2014-10-20 13:09:00,48.7,32.0,29.97,SSW,202,2.1,7.0,50,0.00,,,0.00,Rainwise IP-100,2014-10-20 17:09:00,
2014-10-20 13:14:00,49.1,32.0,29.97,WSW,247,0.0,5.0,50,0.00,,,0.00,Rainwise IP-100,2014-10-20 17:14:00,
2014-10-20 13:19:00,49.6,32.0,29.98,SW,225,0.0,4.0,50,0.00,,,0.00,Rainwise IP-100,2014-10-20 17:19:00,
2014-10-20 13:24:00,50.0,32.0,29.97,SW,225,6.1,7.0,49,0.00,,,0.00,Rainwise IP-100,2014-10-20 17:24:00,
2014-10-20 13:29:00,50.2,31.0,29.97,WNW,292,2.3,6.0,48,0.00,,,0.00,Rainwise IP-100,2014-10-20 17:29:00,
2014-10-20 13:34:00,50.1,31.0,29.98,WSW,247,2.6,9.0,48,0.00,,,0.00,Rainwise IP-100,2014-10-20 17:34:00,
2014-10-20 13:39:00,49.9,31.0,29.97,WSW,247,4.4,7.0,47,0.00,,,0.00,Rainwise IP-100,2014-10-20 17:39:00,
2014-10-20 13:44:00,49.9,31.0,29.97,South,180,6.1,8.0,47,0.00,,,0.00,Rainwise IP-100,2014-10-20 17:44:00,
2014-10-20 13:49:00,49.9,31.0,29.97,WSW,247,5.8,9.0,47,0.00,,,0.00,Rainwise IP-100,2014-10-20 17:49:00,
2014-10-20 13:54:00,49.7,31.0,29.97,SSW,202,4.2,8.0,47,0.00,,,0.00,Rainwise IP-100,2014-10-20 17:54:00,
2014-10-20 13:59:00,49.7,31.0,29.97,SSW,202,1.6,10.0,47,0.00,,,0.00,Rainwise IP-100,2014-10-20 17:59:00,
2014-10-20 14:04:00,50.1,31.0,29.96,NW,315,2.3,5.0,46,0.00,,,0.00,Rainwise IP-100,2014-10-20 18:04:00,
2014-10-20 14:09:00,50.4,31.0,29.97,SSW,202,3.7,5.0,46,0.00,,,0.00,Rainwise IP-100,2014-10-20 18:09:00,
2014-10-20 14:14:00,50.7,31.0,29.97,WSW,247,1.4,10.0,46,0.00,,,0.00,Rainwise IP-100,2014-10-20 18:14:00,
2014-10-20 14:19:00,50.7,31.0,29.97,West,270,1.6,8.0,45,0.00,,,0.00,Rainwise IP-100,2014-10-20 18:19:00,
2014-10-20 14:24:00,50.6,31.0,29.97,WSW,247,1.4,9.0,45,0.00,,,0.00,Rainwise IP-100,2014-10-20 18:24:00,
2014-10-20 14:29:00,50.4,29.0,29.97,WSW,247,1.6,5.0,44,0.00,,,0.00,Rainwise IP-100,2014-10-20 18:29:00,
2014-10-20 14:34:00,50.8,31.0,29.97,WSW,247,2.8,7.0,45,0.00,,,0.00,Rainwise IP-100,2014-10-20 18:34:00,
2014-10-20 14:39:00,50.9,31.0,29.97,SW,225,3.0,10.0,45,0.00,,,0.00,Rainwise IP-100,2014-10-20 18:39:00,
2014-10-20 14:44:00,50.4,31.0,29.97,WSW,247,3.0,8.0,45,0.00,,,0.00,Rainwise IP-100,2014-10-20 18:44:00,
2014-10-20 14:49:00,50.2,29.0,29.97,SW,225,2.8,10.0,45,0.00,,,0.00,Rainwise IP-100,2014-10-20 18:49:00,
2014-10-20 14:54:00,50.2,29.0,29.97,WSW,247,3.3,11.0,45,0.00,,,0.00,Rainwise IP-100,2014-10-20 18:54:00,
2014-10-20 14:59:00,50.2,29.0,29.97,SW,225,3.3,11.0,45,0.00,,,0.00,Rainwise IP-100,2014-10-20 18:59:00,
2014-10-20 15:04:00,50.3,29.0,29.97,South,180,4.0,8.0,45,0.00,,,0.00,Rainwise IP-100,2014-10-20 19:04:00,
2014-10-20 15:09:00,50.4,31.0,29.98,SSE,157,1.2,9.0,45,0.00,,,0.00,Rainwise IP-100,2014-10-20 19:09:00,
2014-10-20 15:14:00,50.8,31.0,29.97,SSW,202,0.0,6.0,46,0.00,,,0.00,Rainwise IP-100,2014-10-20 19:14:00,
2014-10-20 15:19:00,51.4,31.0,29.97,WSW,247,1.4,5.0,46,0.00,,,0.00,Rainwise IP-100,2014-10-20 19:19:00,
2014-10-20 15:24:00,51.5,31.0,29.97,WNW,292,1.4,3.0,44,0.00,,,0.00,Rainwise IP-100,2014-10-20 19:24:00,
2014-10-20 15:29:00,51.4,29.0,29.97,WSW,247,0.0,4.0,43,0.00,,,0.00,Rainwise IP-100,2014-10-20 19:29:00,
2014-10-20 15:34:00,51.4,29.0,29.97,SSE,157,0.0,4.0,43,0.00,,,0.00,Rainwise IP-100,2014-10-20 19:34:00,
2014-10-20 15:39:00,51.4,29.0,29.97,WSW,247,2.6,4.0,43,0.00,,,0.00,Rainwise IP-100,2014-10-20 19:39:00,
2014-10-20 15:44:00,51.5,31.0,29.97,South,180,2.6,5.0,44,0.00,,,0.00,Rainwise IP-100,2014-10-20 19:44:00,
2014-10-20 15:49:00,51.5,31.0,29.98,SW,225,2.8,8.0,44,0.00,,,0.00,Rainwise IP-100,2014-10-20 19:49:00,
2014-10-20 15:54:00,51.4,31.0,29.97,WNW,292,4.2,7.0,44,0.00,,,0.00,Rainwise IP-100,2014-10-20 19:54:00,
2014-10-20 15:59:00,51.2,31.0,29.97,SSW,202,2.3,4.0,45,0.00,,,0.00,Rainwise IP-100,2014-10-20 19:59:00,
2014-10-20 16:04:00,51.2,31.0,29.97,SSW,202,5.6,7.0,44,0.00,,,0.00,Rainwise IP-100,2014-10-20 20:04:00,
2014-10-20 16:09:00,51.1,31.0,29.98,SW,225,0.0,7.0,44,0.00,,,0.00,Rainwise IP-100,2014-10-20 20:09:00,
2014-10-20 16:14:00,51.1,31.0,29.97,SSW,202,2.3,3.0,44,0.00,,,0.00,Rainwise IP-100,2014-10-20 20:14:00,
2014-10-20 16:19:00,51.1,31.0,29.97,SW,225,6.1,6.1,44,0.00,,,0.00,Rainwise IP-100,2014-10-20 20:19:00,
2014-10-20 16:24:00,50.5,29.0,29.98,WSW,247,1.2,8.0,44,0.00,,,0.00,Rainwise IP-100,2014-10-20 20:24:00,
2014-10-20 16:29:00,49.9,29.0,29.98,WNW,292,2.3,4.0,44,0.00,,,0.00,Rainwise IP-100,2014-10-20 20:29:00,
2014-10-20 16:34:00,49.8,29.0,29.98,WSW,247,1.9,3.0,45,0.00,,,0.00,Rainwise IP-100,2014-10-20 20:34:00,
2014-10-20 16:39:00,49.6,31.0,29.97,SSW,202,1.4,6.0,46,0.00,,,0.00,Rainwise IP-100,2014-10-20 20:39:00,
2014-10-20 16:44:00,48.9,31.0,29.98,SSW,202,0.0,4.0,48,0.00,,,0.00,Rainwise IP-100,2014-10-20 20:44:00,
2014-10-20 16:49:00,48.1,31.0,29.98,NNW,337,0.0,4.0,50,0.00,,,0.00,Rainwise IP-100,2014-10-20 20:49:00,
2014-10-20 16:54:00,47.3,31.0,29.98,NNW,337,0.0,0.0,53,0.00,,,0.00,Rainwise IP-100,2014-10-20 20:54:00,
2014-10-20 16:59:00,46.8,32.0,29.98,NNE,22,0.0,3.0,55,0.00,,,0.00,Rainwise IP-100,2014-10-20 20:59:00,
2014-10-20 17:04:00,46.4,31.0,29.98,NNE,22,0.0,1.0,56,0.00,,,0.00,Rainwise IP-100,2014-10-20 21:04:00,
2014-10-20 17:09:00,46.0,32.0,29.98,SSE,157,0.0,1.0,57,0.00,,,0.00,Rainwise IP-100,2014-10-20 21:09:00,
2014-10-20 17:14:00,45.4,31.0,29.98,West,270,0.0,3.0,58,0.00,,,0.00,Rainwise IP-100,2014-10-20 21:14:00,
2014-10-20 17:19:00,44.9,32.0,29.98,SSW,202,0.0,2.0,59,0.00,,,0.00,Rainwise IP-100,2014-10-20 21:19:00,
2014-10-20 17:24:00,44.3,31.0,29.98,SSW,202,0.0,0.0,59,0.00,,,0.00,Rainwise IP-100,2014-10-20 21:24:00,
2014-10-20 17:29:00,43.8,31.0,29.99,SSW,202,0.0,0.0,60,0.00,,,0.00,Rainwise IP-100,2014-10-20 21:29:00,
2014-10-20 17:34:00,43.4,31.0,29.99,SSW,202,1.2,1.2,60,0.00,,,0.00,Rainwise IP-100,2014-10-20 21:34:00,
2014-10-20 17:39:00,43.2,31.0,29.99,SSW,202,0.0,2.0,59,0.00,,,0.00,Rainwise IP-100,2014-10-20 21:39:00,
2014-10-20 17:44:00,43.2,29.0,29.99,SSW,202,1.2,1.2,58,0.00,,,0.00,Rainwise IP-100,2014-10-20 21:44:00,
2014-10-20 17:49:00,43.0,31.0,29.99,WSW,247,0.0,2.0,59,0.00,,,0.00,Rainwise IP-100,2014-10-20 21:49:00,
2014-10-20 17:54:00,42.7,31.0,30.00,WSW,247,0.0,2.0,60,0.00,,,0.00,Rainwise IP-100,2014-10-20 21:54:00,
2014-10-20 17:59:00,42.3,29.0,29.99,SW,225,0.0,2.0,61,0.00,,,0.00,Rainwise IP-100,2014-10-20 21:59:00,
2014-10-20 18:04:00,42.0,29.0,29.99,SW,225,0.0,1.0,61,0.00,,,0.00,Rainwise IP-100,2014-10-20 22:04:00,
2014-10-20 18:09:00,41.8,29.0,29.99,SW,225,1.2,1.2,60,0.00,,,0.00,Rainwise IP-100,2014-10-20 22:09:00,
2014-10-20 18:14:00,41.9,29.0,29.99,SSW,202,0.0,3.0,59,0.00,,,0.00,Rainwise IP-100,2014-10-20 22:14:00,
2014-10-20 18:19:00,41.9,29.0,30.00,SSW,202,1.4,2.0,59,0.00,,,0.00,Rainwise IP-100,2014-10-20 22:19:00,
2014-10-20 18:24:00,41.8,29.0,29.99,SSW,202,1.9,2.0,58,0.00,,,0.00,Rainwise IP-100,2014-10-20 22:24:00,
2014-10-20 18:29:00,41.9,28.0,30.00,SSW,202,2.1,3.0,57,0.00,,,0.00,Rainwise IP-100,2014-10-20 22:29:00,
2014-10-20 18:34:00,41.9,28.0,30.00,SSW,202,0.0,4.0,57,0.00,,,0.00,Rainwise IP-100,2014-10-20 22:34:00,
2014-10-20 18:39:00,42.0,29.0,30.00,South,180,2.6,3.0,58,0.00,,,0.00,Rainwise IP-100,2014-10-20 22:39:00,
2014-10-20 18:44:00,42.0,29.0,30.00,SSE,157,1.6,4.0,61,0.00,,,0.00,Rainwise IP-100,2014-10-20 22:44:00,
2014-10-20 18:49:00,42.0,31.0,30.01,WSW,247,1.4,5.0,64,0.00,,,0.00,Rainwise IP-100,2014-10-20 22:49:00,
2014-10-20 18:54:00,42.0,32.0,30.01,WNW,292,2.3,6.0,66,0.00,,,0.00,Rainwise IP-100,2014-10-20 22:54:00,
2014-10-20 18:59:00,42.0,32.0,30.01,WSW,247,1.4,8.0,68,0.00,,,0.00,Rainwise IP-100,2014-10-20 22:59:00,
2014-10-20 19:04:00,41.8,33.0,30.01,SSW,202,2.6,5.0,70,0.00,,,0.00,Rainwise IP-100,2014-10-20 23:04:00,
2014-10-20 19:09:00,41.8,33.0,30.01,SW,225,5.6,7.0,71,0.00,,,0.00,Rainwise IP-100,2014-10-20 23:09:00,
2014-10-20 19:14:00,41.7,33.0,30.01,SW,225,3.7,6.0,72,0.00,,,0.00,Rainwise IP-100,2014-10-20 23:14:00,